Weather History for Pine River, MN

Change the Weather History Date:

Friday, October 5, 2012

  Actual Average Record
Temperature  
Mean Temperature 36 °F -  
Max Temperature 39 °F 58 °F 82 °F (2011)
Min Temperature 33 °F 36 °F 26 °F (2004)
Degree Days  
Heating Degree Days 29    
Moisture  
Dew Point 27 °F    
Average Humidity 73    
Maximum Humidity 87    
Minimum Humidity 56    
Precipitation  
Precipitation 0.00 in - - ()
Sea Level Pressure  
Sea Level Pressure 30.09 in    
Wind  
Wind Speed 13 mph (WNW)    
Max Wind Speed 18 mph    
Max Gust Speed 31 mph    
Visibility 9 miles    
Events Rain , Snow    
Averages and records for this station are not official NWS values.
T = Trace of Precipitation, MM = Missing Value Source: NWS Daily Summary

Daily Weather History Graph

Daily Weather History Graph

Search for Another Location

Airport:

Trip Planner

Search our weather history database for the weather conditions in past years. The results will help you decide how hot, cold, wet, or windy it might be!

Date:

Astronomy

Oct. 05, 2012 Rise Set
Actual Time 7:22 AM CDT 6:48 PM CDT
Civil Twilight 6:52 AM CDT 7:18 PM CDT
Nautical Twilight 6:16 AM CDT 7:53 PM CDT
Astronomical Twilight 5:41 AM CDT 8:29 PM CDT
Moon 9:55 PM CDT (10/5) 12:48 PM CDT (10/5)
Length of Visible Light 12h 26m
Length of Day
11h 26m
Waning Gibbous, 74% of the Moon is Illuminated
Oct 5
Waning Gibbous
Oct 8
Last Quarter
Oct 15
New
Oct 21
First Quarter
Oct 29
Full

Hourly Weather History & Observations

Time (CDT) Temp. Windchill Dew Point Humidity Pressure Visibility Wind Dir Wind Speed Gust Speed Precip Events Conditions
12:13 AM 35.6 °F 25.5 °F 30.2 °F 81% 30.07 in 10.0 mi WNW 17.3 mph 23.0 mph N/A   Light Drizzle
12:33 AM 35.6 °F 25.9 °F 28.4 °F 75% 30.06 in 10.0 mi West 16.1 mph 26.5 mph N/A   Overcast
12:53 AM 35.6 °F 27.1 °F 28.4 °F 75% 30.07 in 10.0 mi West 12.7 mph 20.7 mph N/A   Overcast
1:12 AM 35.6 °F 27.1 °F 28.4 °F 75% 30.06 in 10.0 mi WNW 12.7 mph 26.5 mph N/A   Overcast
1:33 AM 35.6 °F 26.2 °F 28.4 °F 75% 30.06 in 10.0 mi WNW 15.0 mph 31.1 mph N/A   Overcast
1:52 AM 35.6 °F 27.1 °F 28.4 °F 75% 30.06 in 10.0 mi West 12.7 mph 20.7 mph N/A   Overcast
2:11 AM 35.6 °F 28.6 °F 28.4 °F 75% 30.07 in 10.0 mi West 9.2 mph 20.7 mph N/A   Overcast
2:33 AM 35.6 °F 28.6 °F 28.4 °F 75% 30.07 in 10.0 mi West 9.2 mph 23.0 mph N/A   Overcast
3:13 AM 33.8 °F 24.8 °F 26.6 °F 75% 30.06 in 10.0 mi West 12.7 mph 23.0 mph N/A   Overcast
3:33 AM 33.8 °F 24.8 °F 26.6 °F 75% 30.05 in 10.0 mi WNW 12.7 mph 23.0 mph N/A   Overcast
3:53 AM 33.8 °F 24.3 °F 26.6 °F 75% 30.05 in 10.0 mi West 13.8 mph 20.7 mph N/A   Overcast
4:11 AM 33.8 °F 23.9 °F 26.6 °F 75% 30.05 in 10.0 mi West 15.0 mph 19.6 mph N/A   Overcast
4:33 AM 33.8 °F 24.3 °F 26.6 °F 75% 30.05 in 10.0 mi West 13.8 mph 23.0 mph N/A   Overcast
4:53 AM 33.8 °F 24.3 °F 26.6 °F 75% 30.05 in 10.0 mi West 13.8 mph 21.9 mph N/A   Overcast
5:13 AM 33.8 °F 25.3 °F 26.6 °F 75% 30.05 in 10.0 mi WNW 11.5 mph 23.0 mph N/A   Overcast
5:33 AM 33.8 °F 23.9 °F 26.6 °F 75% 30.04 in 10.0 mi WNW 15.0 mph 24.2 mph N/A   Overcast
5:53 AM 33.8 °F 24.3 °F 26.6 °F 75% 30.04 in 10.0 mi West 13.8 mph 23.0 mph N/A   Overcast
6:12 AM 33.8 °F 23.9 °F 26.6 °F 75% 30.04 in 10.0 mi WNW 15.0 mph 26.5 mph N/A   Overcast
6:32 AM 33.8 °F 25.8 °F 26.6 °F 75% 30.05 in 10.0 mi West 10.4 mph 20.7 mph N/A   Overcast
6:53 AM 33.8 °F 25.3 °F 26.6 °F 75% 30.05 in 10.0 mi West 11.5 mph 21.9 mph N/A   Overcast
7:12 AM 33.8 °F 24.8 °F 26.6 °F 75% 30.05 in 10.0 mi West 12.7 mph 18.4 mph N/A   Overcast
7:33 AM 33.8 °F 25.3 °F 26.6 °F 75% 30.05 in 10.0 mi WNW 11.5 mph 18.4 mph N/A   Overcast
7:53 AM 33.8 °F 26.4 °F 26.6 °F 75% 30.05 in 10.0 mi WNW 9.2 mph 17.3 mph N/A   Overcast
8:13 AM 33.8 °F 25.8 °F 26.6 °F 75% 30.05 in 10.0 mi West 10.4 mph 19.6 mph N/A   Overcast
8:32 AM 33.8 °F 24.8 °F 26.6 °F 75% 30.05 in 10.0 mi West 12.7 mph 20.7 mph N/A   Overcast
8:53 AM 33.8 °F 24.8 °F 26.6 °F 75% 30.06 in 10.0 mi West 12.7 mph 20.7 mph N/A   Overcast
9:33 AM 33.8 °F 23.5 °F 26.6 °F 75% 30.06 in 10.0 mi West 16.1 mph 27.6 mph N/A   Overcast
10:12 AM 35.6 °F 27.1 °F 26.6 °F 70% 30.07 in 10.0 mi WNW 12.7 mph 18.4 mph N/A   Overcast
10:33 AM 35.6 °F 27.1 °F 26.6 °F 70% 30.08 in 10.0 mi West 12.7 mph 19.6 mph N/A   Overcast
10:53 AM 35.6 °F 26.2 °F 26.6 °F 70% 30.08 in 10.0 mi West 15.0 mph 20.7 mph N/A   Overcast
11:13 AM 35.6 °F 26.2 °F 26.6 °F 70% 30.08 in 10.0 mi West 15.0 mph 23.0 mph N/A   Overcast
11:33 AM 35.6 °F 25.5 °F 26.6 °F 70% 30.08 in 10.0 mi West 17.3 mph 24.2 mph N/A   Overcast
12:13 PM 37.4 °F 29.3 °F 26.6 °F 65% 30.07 in 10.0 mi WNW 12.7 mph 25.3 mph N/A   Overcast
12:33 PM 37.4 °F 29.8 °F 26.6 °F 65% 30.08 in 10.0 mi West 11.5 mph 20.7 mph N/A   Overcast
12:53 PM 37.4 °F 29.3 °F 26.6 °F 65% 30.08 in 10.0 mi West 12.7 mph 20.7 mph N/A   Overcast
1:13 PM 37.4 °F 28.5 °F 26.6 °F 65% 30.08 in 10.0 mi WNW 15.0 mph 26.5 mph N/A   Overcast
1:33 PM 39.2 °F 31.6 °F 26.6 °F 61% 30.07 in 10.0 mi West 12.7 mph 27.6 mph N/A   Overcast
1:53 PM 39.2 °F 29.8 °F 24.8 °F 56% 30.07 in 10.0 mi NW 18.4 mph 28.8 mph N/A   Overcast
2:13 PM 39.2 °F 31.6 °F 24.8 °F 56% 30.07 in 10.0 mi WNW 12.7 mph 26.5 mph N/A   Overcast
2:33 PM 39.2 °F 30.5 °F 24.8 °F 56% 30.07 in 10.0 mi NW 16.1 mph 23.0 mph N/A   Overcast
2:53 PM 39.2 °F 30.8 °F 24.8 °F 56% 30.08 in 10.0 mi WNW 15.0 mph 26.5 mph N/A   Overcast
3:13 PM 37.4 °F 29.8 °F 24.8 °F 60% 30.08 in 10.0 mi WNW 11.5 mph 31.1 mph N/A   Overcast
3:33 PM 37.4 °F 30.3 °F 26.6 °F 65% 30.09 in 10.0 mi WNW 10.4 mph 24.2 mph N/A   Overcast
3:53 PM 37.4 °F 28.2 °F 26.6 °F 65% 30.09 in 10.0 mi WNW 16.1 mph 23.0 mph N/A   Overcast
4:13 PM 37.4 °F 28.9 °F 26.6 °F 65% 30.09 in 10.0 mi WNW 13.8 mph 25.3 mph N/A   Overcast
4:33 PM 37.4 °F 29.3 °F 26.6 °F 65% 30.10 in 10.0 mi NW 12.7 mph 18.4 mph N/A   Mostly Cloudy
4:53 PM 37.4 °F 30.3 °F 26.6 °F 65% 30.10 in 10.0 mi WNW 10.4 mph 18.4 mph N/A   Overcast
5:13 PM 37.4 °F 31.4 °F 24.8 °F 60% 30.11 in 10.0 mi WNW 8.1 mph 20.7 mph N/A   Mostly Cloudy
5:33 PM 37.4 °F 28.5 °F 24.8 °F 60% 30.11 in 10.0 mi WNW 15.0 mph 21.9 mph N/A   Overcast
5:53 PM 37.4 °F 29.8 °F 24.8 °F 60% 30.11 in 10.0 mi NW 11.5 mph 21.9 mph N/A   Overcast
6:13 PM 37.4 °F 30.8 °F 26.6 °F 65% 30.12 in 10.0 mi WNW 9.2 mph 19.6 mph N/A   Overcast
6:32 PM 35.6 °F 26.6 °F 26.6 °F 70% 30.12 in 10.0 mi WNW 13.8 mph 19.6 mph N/A   Overcast
6:52 PM 35.6 °F 27.1 °F 28.4 °F 75% 30.13 in 10.0 mi NW 12.7 mph 19.6 mph N/A   Overcast
7:12 PM 35.6 °F 29.2 °F 28.4 °F 75% 30.13 in 10.0 mi WNW 8.1 mph - N/A Snow Light Snow
7:33 PM 33.8 °F 25.8 °F 28.4 °F 81% 30.13 in 10.0 mi NW 10.4 mph 17.3 mph N/A Snow Light Snow
7:53 PM 33.8 °F 27.7 °F 28.4 °F 81% 30.14 in 7.0 mi WNW 6.9 mph - N/A Snow Light Snow
8:13 PM 33.8 °F 27.7 °F 30.2 °F 87% 30.14 in 7.0 mi WNW 6.9 mph - N/A Snow Light Snow
8:32 PM 33.8 °F 27.0 °F 30.2 °F 87% 30.14 in 4.0 mi WNW 8.1 mph - N/A Snow Light Snow
8:53 PM 33.8 °F 27.7 °F 30.2 °F 87% 30.15 in 4.0 mi WNW 6.9 mph - N/A Snow Light Snow
9:13 PM 33.8 °F 27.7 °F 30.2 °F 87% 30.15 in 5.0 mi WNW 6.9 mph - N/A Snow Light Snow
9:33 PM 33.8 °F 27.7 °F 30.2 °F 87% 30.15 in 7.0 mi WNW 6.9 mph - N/A Snow Light Snow
9:53 PM 33.8 °F 26.4 °F 30.2 °F 87% 30.15 in 5.0 mi WNW 9.2 mph - N/A Snow Light Snow
10:13 PM 33.8 °F 27.7 °F 30.2 °F 87% 30.16 in 7.0 mi NW 6.9 mph - N/A Snow Light Snow
10:33 PM 33.8 °F 27.7 °F 30.2 °F 87% 30.16 in 5.0 mi WNW 6.9 mph - N/A Rain Light Rain
10:53 PM 33.8 °F 27.0 °F 30.2 °F 87% 30.16 in 10.0 mi NW 8.1 mph - N/A   Overcast
11:33 PM 33.8 °F 27.7 °F 30.2 °F 87% 30.16 in 10.0 mi NNW 6.9 mph - N/A   Overcast
11:52 PM 33.8 °F 27.0 °F 30.2 °F 87% 30.17 in 10.0 mi NW 8.1 mph - N/A Rain Light Rain